GW4611 Weather Reports


time (UTC)temp
C
wind
direction
speed
KPH
gust
KPH
rain 1hr
cm
rain 24hr
cm
rain mn
cm
humidity
%
barometer
mb
20260510071556 6 44 0.0 1.6 0.00 0.00 0.00 95 1013.3
20260510071055 6 324 1.6 4.8 0.00 0.00 0.00 95 1013.2
20260510070551 6 210 3.2 3.2 0.00 0.00 0.00 96 1013.4
20260510070048 6 240 0.0 0.0 0.00 0.00 0.00 96 1013.1
20260510065544 6 253 0.0 1.6 0.00 0.00 0.00 96 1013.4
20260510065041 6 224 0.0 3.2 0.00 0.00 0.00 96 1013.2
20260510064537 6 204 3.2 4.8 0.00 0.00 0.00 96 1013.0
20260510064034 6 221 4.8 4.8 0.00 0.00 0.00 96 1013.3
20260510063531 6 232 0.0 0.0 0.00 0.00 0.00 96 1013.3
20260510063028 6 219 0.0 0.0 0.00 0.00 0.00 95 1013.2
20260510062524 6 209 0.0 3.2 0.00 0.00 0.00 95 1013.1
20260510062019 6 236 0.0 1.6 0.00 0.00 0.00 95 1013.1
20260510061516 6 70 0.0 0.0 0.00 0.00 0.00 95 1013.1
20260510061012 6 276 3.2 3.2 0.00 0.00 0.00 96 1013.1
20260510060509 6 166 0.0 1.6 0.00 0.00 0.00 95 1013.2
20260510060006 6 211 3.2 4.8 0.00 0.00 0.00 96 1013.2
20260510055501 6 240 3.2 4.8 0.00 0.00 0.00 95 1013.4
20260510055000 6 204 3.2 4.8 0.00 0.00 0.00 95 1013.5
20260510054455 7 218 4.8 4.8 0.00 0.00 0.00 95 1013.4
20260510053950 7 145 3.2 3.2 0.00 0.00 0.00 96 1013.6
20260510053445 6 238 3.2 3.2 0.00 0.00 0.00 96 1013.7
20260510052942 6 274 0.0 0.0 0.00 0.00 0.00 95 1013.8
20260510052438 6 245 0.0 1.6 0.00 0.00 0.00 95 1013.7
20260510051934 6 245 0.0 0.0 0.00 0.00 0.00 94 1013.9
20260510051431 7 250 0.0 0.0 0.00 0.00 0.00 95 1013.8
20260510050927 6 247 0.0 1.6 0.00 0.00 0.00 95 1013.7
20260510050424 6 238 0.0 0.0 0.00 0.00 0.00 95 1013.7
20260510045921 7 219 0.0 0.0 0.00 0.00 0.00 94 1013.4
20260510045418 7 219 1.6 3.2 0.00 0.00 0.00 94 1013.6
20260510044915 7 220 6.4 6.4 0.00 0.00 0.00 95 1013.4
20260510044412 7 229 1.6 1.6 0.00 0.00 0.00 94 1013.6
20260510043909 7 229 3.2 3.2 0.00 0.00 0.00 95 1013.4
20260510043404 7 238 0.0 0.0 0.00 0.00 0.00 93 1013.2
20260510042903 7 239 0.0 0.0 0.00 0.00 0.00 94 1013.0
20260510042358 7 239 0.0 0.0 0.00 0.00 0.00 94 1013.0
20260510041854 7 239 0.0 1.6 0.00 0.00 0.00 93 1013.0
20260510041352 7 232 0.0 0.0 0.00 0.00 0.00 94 1013.0
20260510040849 7 232 1.6 3.2 0.00 0.00 0.00 94 1013.1
20260510040346 7 232 0.0 3.2 0.00 0.00 0.00 93 1013.0
20260510035841 7 232 0.0 1.6 0.00 0.00 0.00 93 1013.0
20260510035337 7 232 0.0 0.0 0.00 0.00 0.00 92 1013.1
20260510034833 7 229 3.2 3.2 0.00 0.00 0.00 93 1013.2
20260510034331 7 248 3.2 3.2 0.00 0.00 0.00 92 1013.3
20260510033827 8 248 1.6 3.2 0.00 0.00 0.00 91 1013.2
20260510033324 8 252 0.0 0.0 0.00 0.00 0.00 91 1013.2
20260510032821 8 253 0.0 0.0 0.00 0.00 0.00 90 1013.2
20260510032318 8 252 0.0 0.0 0.00 0.00 0.00 89 1013.0
20260510031813 8 241 1.6 1.6 0.00 0.00 0.00 88 1013.0
20260510031309 9 197 1.6 1.6 0.00 0.00 0.00 88 1013.1
20260510030809 9 215 1.6 4.8 0.00 0.00 0.00 89 1013.1
20260510030306 9 227 1.6 3.2 0.00 0.00 0.00 88 1013.1
20260510025803 9 179 3.2 4.8 0.00 0.00 0.00 88 1013.1
20260510025300 9 192 3.2 4.8 0.00 0.00 0.00 88 1012.9
20260510024757 9 234 1.6 3.2 0.00 0.00 0.00 89 1013.0
20260510024254 9 209 0.0 4.8 0.00 0.00 0.00 88 1012.8
20260510023750 10 225 3.2 4.8 0.00 0.00 0.00 88 1013.0
20260510023247 9 215 3.2 6.4 0.00 0.00 0.00 88 1012.9
20260510022744 10 172 1.6 1.6 0.00 0.00 0.00 86 1013.0
20260510022243 10 207 3.2 3.2 0.00 0.00 0.00 86 1012.8
20260510021742 10 209 3.2 4.8 0.00 0.00 0.00 86 1012.8
20260510021241 10 214 1.6 3.2 0.00 0.00 0.00 87 1012.6
20260510020737 10 203 1.6 3.2 0.00 0.00 0.00 85 1012.5
20260510020236 10 196 4.8 6.4 0.00 0.00 0.00 85 1012.3
20260510015733 10 200 3.2 4.8 0.00 0.00 0.00 85 1012.3
20260510015229 11 220 3.2 4.8 0.00 0.00 0.00 85 1012.2
20260510014724 11 221 3.2 4.8 0.00 0.00 0.00 82 1012.0
20260510014222 11 218 0.0 4.8 0.00 0.00 0.00 82 1011.9
20260510013717 11 193 1.6 3.2 0.00 0.00 0.00 83 1012.0
20260510013214 11 201 6.4 6.4 0.00 0.00 0.00 84 1011.9
20260510012713 12 211 3.2 4.8 0.00 0.00 0.00 80 1011.9
20260510012209 12 224 3.2 4.8 0.00 0.00 0.00 81 1011.7
20260510011704 11 218 4.8 6.4 0.00 0.00 0.00 82 1011.6
20260510011200 11 196 1.6 3.2 0.00 0.00 0.00 83 1011.5
20260510010656 11 199 3.2 4.8 0.00 0.00 0.00 83 1011.6
20260510010148 12 210 1.6 6.4 0.00 0.00 0.00 84 1011.5
20260510005644 12 212 3.2 4.8 0.00 0.00 0.00 81 1011.3
20260510005141 12 209 3.2 4.8 0.00 0.00 0.00 79 1011.4
20260510004639 12 225 3.2 4.8 0.00 0.00 0.00 78 1011.5
20260510004137 12 219 3.2 4.8 0.00 0.00 0.00 78 1011.1
20260510003634 13 229 3.2 4.8 0.00 0.00 0.00 78 1011.0
20260510003130 13 236 1.6 3.2 0.00 0.00 0.00 77 1011.0
20260510002629 14 222 0.0 0.0 0.00 0.00 0.00 75 1011.1
20260510002127 14 222 0.0 0.0 0.00 0.00 0.00 73 1010.6
20260510001623 15 222 0.0 0.0 0.00 0.00 0.00 71 1010.7
20260510001123 15 214 0.0 0.0 0.00 0.00 0.00 70 1010.6
20260510000622 16 213 3.2 3.2 0.00 0.00 0.00 68 1010.6
20260510000120 16 222 1.6 4.8 0.00 0.00 0.00 67 1010.5
20260509235616 16 217 1.6 4.8 0.00 0.00 0.00 66 1010.3
20260509235113 17 208 3.2 3.2 0.00 0.00 0.00 64 1010.2
20260509234609 17 249 0.0 3.2 0.00 0.00 0.00 63 1010.3
20260509234107 18 222 0.0 3.2 0.00 0.00 0.00 58 1010.3
20260509233604 18 9 1.6 4.8 0.00 0.00 0.00 57 1010.3
20260509233101 19 265 1.6 3.2 0.00 0.00 0.00 53 1010.4
20260509232557 19 214 0.0 0.0 0.00 0.00 0.00 53 1010.5
20260509232055 19 213 3.2 4.8 0.00 0.00 0.00 52 1010.2
20260509231551 19 195 3.2 4.8 0.00 0.00 0.00 55 1010.4
20260509231049 20 214 3.2 4.8 0.00 0.00 0.00 51 1010.4
20260509230545 21 196 6.4 6.4 0.00 0.00 0.00 49 1010.5
20260509230043 21 187 4.8 4.8 0.00 0.00 0.00 47 1010.4
20260509225538 21 227 1.6 3.2 0.00 0.00 0.00 47 1010.4
20260509225034 21 154 3.2 4.8 0.00 0.00 0.00 47 1010.3
20260509224529 21 136 3.2 6.4 0.00 0.00 0.00 46 1010.5
20260509224026 22 268 0.0 0.0 0.00 0.00 0.00 46 1010.3
20260509223523 21 308 1.6 1.6 0.00 0.00 0.00 49 1010.4
20260509223021 20 286 0.0 1.6 0.00 0.00 0.00 50 1010.4
20260509222517 20 318 4.8 4.8 0.00 0.00 0.00 50 1010.6
20260509222012 20 15 4.8 4.8 0.00 0.00 0.00 52 1010.5
20260509221509 20 342 1.6 4.8 0.00 0.00 0.00 50 1010.4
20260509221005 20 315 1.6 3.2 0.00 0.00 0.00 51 1010.3
20260509220501 20 330 4.8 6.4 0.00 0.00 0.00 50 1010.3
20260509215957 20 329 3.2 6.4 0.00 0.00 0.00 49 1010.4
20260509215452 20 231 3.2 6.4 0.00 0.00 0.00 49 1010.4
20260509214950 20 13 3.2 11.3 0.00 0.00 0.00 50 1010.3
20260509214448 20 333 1.6 9.7 0.00 0.00 0.00 49 1010.4
20260509213944 20 318 3.2 9.7 0.00 0.00 0.00 49 1010.3
20260509213440 21 310 6.4 6.4 0.00 0.00 0.00 47 1010.2
20260509212937 20 324 4.8 4.8 0.00 0.00 0.00 49 1010.2
20260509212435 20 308 4.8 6.4 0.00 0.00 0.00 49 1010.0
20260509211931 21 326 9.7 12.9 0.00 0.00 0.00 48 1010.0
20260509211426 21 27 1.6 9.7 0.00 0.00 0.00 48 1010.0
20260509210923 21 23 1.6 9.7 0.00 0.00 0.00 47 1010.0
20260509210420 21 303 1.6 4.8 0.00 0.00 0.00 48 1009.9
20260509205915 21 330 1.6 3.2 0.00 0.00 0.00 45 1009.9
20260509205415 21 318 6.4 6.4 0.00 0.00 0.00 46 1009.7
20260509204911 21 121 0.0 11.3 0.00 0.00 0.00 45 1009.7
20260509204408 21 318 0.0 4.8 0.00 0.00 0.00 44 1009.7
20260509203905 21 19 6.4 12.9 0.00 0.00 0.00 44 1009.9
20260509203401 21 20 4.8 11.3 0.00 0.00 0.00 42 1009.8
20260509202858 21 15 1.6 4.8 0.00 0.00 0.00 43 1009.8
20260509202354 21 349 3.2 4.8 0.00 0.00 0.00 43 1009.8
20260509201849 21 22 4.8 6.4 0.00 0.00 0.00 43 1009.5
20260509201345 21 17 6.4 9.7 0.00 0.00 0.00 45 1009.6
20260509200842 21 326 3.2 4.8 0.00 0.00 0.00 46 1009.6
20260509200336 21 7 3.2 6.4 0.00 0.00 0.00 45 1009.5
20260509195834 22 4 3.2 11.3 0.00 0.00 0.00 45 1009.6
20260509195333 22 352 3.2 4.8 0.00 0.00 0.00 43 1009.5
20260509194828 22 278 3.2 6.4 0.00 0.00 0.00 40 1009.5
20260509194324 21 195 8.0 16.1 0.00 0.00 0.00 41 1009.5
20260509193821 22 245 0.0 0.0 0.00 0.00 0.00 41 1009.7
20260509193320 22 323 0.0 0.0 0.00 0.00 0.00 41 1009.6
20260509192817 22 234 0.0 3.2 0.00 0.00 0.00 41 1010.0
20260509192313 22 7 0.0 1.6 0.00 0.00 0.00 42 1009.7
20260509191808 22 15 0.0 3.2 0.00 0.00 0.00 42 1009.7
20260509191304 22 16 3.2 3.2 0.00 0.00 0.00 41 1009.9
20260509190800 21 227 0.0 0.0 0.00 0.00 0.00 43 1009.9
20260509190258 21 283 3.2 6.4 0.00 0.00 0.00 44 1010.1
20260509185755 21 340 3.2 6.4 0.00 0.00 0.00 46 1010.1
20260509185251 20 302 6.4 6.4 0.00 0.00 0.00 46 1010.3
20260509184749 21 343 4.8 9.7 0.00 0.00 0.00 47 1010.1
20260509184246 21 306 3.2 9.7 0.00 0.00 0.00 46 1010.1
20260509183742 21 316 3.2 6.4 0.00 0.00 0.00 50 1010.3
20260509183237 21 315 6.4 9.7 0.00 0.00 0.00 44 1010.3
20260509182733 21 271 4.8 6.4 0.00 0.00 0.00 41 1010.2
20260509182231 21 42 0.0 1.6 0.00 0.00 0.00 43 1010.4
20260509181728 21 52 0.0 1.6 0.00 0.00 0.00 42 1010.3
20260509181225 21 285 1.6 6.4 0.00 0.00 0.00 42 1010.7
20260509180722 21 25 0.0 1.6 0.00 0.00 0.00 42 1010.9
20260509180219 21 237 6.4 6.4 0.00 0.00 0.00 43 1011.0
20260509175715 21 83 1.6 4.8 0.00 0.00 0.00 45 1011.1
20260509175212 21 322 3.2 4.8 0.00 0.00 0.00 42 1011.1
20260509174707 20 227 3.2 11.3 0.00 0.00 0.00 45 1011.1
20260509174202 20 232 0.0 3.2 0.00 0.00 0.00 46 1011.3
20260509173659 20 219 3.2 4.8 0.00 0.00 0.00 46 1011.3
20260509173155 19 263 1.6 6.4 0.00 0.00 0.00 50 1011.7
20260509172651 19 216 1.6 4.8 0.00 0.00 0.00 49 1011.4
20260509172148 18 226 3.2 3.2 0.00 0.00 0.00 47 1011.7
20260509171643 18 176 1.6 3.2 0.00 0.00 0.00 50 1011.8
20260509171140 18 113 0.0 4.8 0.00 0.00 0.00 50 1012.0
20260509170637 18 234 6.4 6.4 0.00 0.00 0.00 55 1012.0
20260509170132 17 284 1.6 4.8 0.00 0.00 0.00 52 1012.0
20260509165631 17 181 1.6 3.2 0.00 0.00 0.00 55 1012.2
20260509165127 17 146 3.2 6.4 0.00 0.00 0.00 54 1012.2
20260509164623 16 135 3.2 9.7 0.00 0.00 0.00 55 1012.1
20260509164119 16 153 0.0 9.7 0.00 0.00 0.00 55 1012.2
20260509163617 17 166 6.4 9.7 0.00 0.00 0.00 57 1012.1
20260509163112 16 308 1.6 6.4 0.00 0.00 0.00 58 1012.2
20260509162605 16 333 1.6 4.8 0.00 0.00 0.00 58 1012.3
20260509162100 16 318 4.8 6.4 0.00 0.00 0.00 57 1012.5
20260509161556 16 10 3.2 6.4 0.00 0.00 0.00 56 1012.6
20260509161050 16 331 4.8 6.4 0.00 0.00 0.00 57 1012.5
20260509160547 16 11 1.6 4.8 0.00 0.00 0.00 54 1012.5
20260509160042 16 29 1.6 6.4 0.00 0.00 0.00 55 1012.4
20260509155539 16 332 6.4 9.7 0.00 0.00 0.00 56 1012.5
20260509155035 16 27 4.8 9.7 0.00 0.00 0.00 54 1012.4
20260509154531 17 6 8.0 14.5 0.00 0.00 0.00 54 1012.4
20260509154029 17 321 3.2 9.7 0.00 0.00 0.00 57 1012.3
20260509153526 17 313 8.0 9.7 0.00 0.00 0.00 55 1012.2
20260509153022 17 329 6.4 9.7 0.00 0.00 0.00 55 1012.2
20260509152518 17 324 4.8 6.4 0.00 0.00 0.00 56 1012.2
20260509152015 17 19 4.8 6.4 0.00 0.00 0.00 53 1012.1
20260509151512 17 310 4.8 9.7 0.00 0.00 0.00 54 1012.2
20260509151010 17 329 3.2 4.8 0.00 0.00 0.00 56 1012.2
20260509150507 17 354 0.0 6.4 0.00 0.00 0.00 54 1012.2
20260509150005 17 9 3.2 4.8 0.00 0.00 0.00 55 1012.2
20260509145500 17 10 6.4 9.7 0.00 0.00 0.00 54 1012.3
20260509144955 17 355 6.4 6.4 0.00 0.00 0.00 55 1012.3
20260509144453 17 20 3.2 4.8 0.00 0.00 0.00 52 1012.2
20260509143950 17 302 3.2 4.8 0.00 0.00 0.00 52 1012.2
20260509143447 17 21 4.8 4.8 0.00 0.00 0.00 54 1012.3
20260509142943 17 317 6.4 9.7 0.00 0.00 0.00 54 1012.1
20260509142440 17 19 3.2 4.8 0.00 0.00 0.00 52 1012.2
20260509141935 17 274 3.2 4.8 0.00 0.00 0.00 50 1012.1
20260509141432 17 264 1.6 4.8 0.00 0.00 0.00 53 1012.3
20260509140929 17 330 3.2 6.4 0.00 0.00 0.00 55 1012.3
20260509140425 17 351 1.6 4.8 0.00 0.00 0.00 53 1012.3
20260509135924 17 30 4.8 4.8 0.00 0.00 0.00 50 1012.4
20260509135421 17 330 0.0 0.0 0.00 0.00 0.00 51 1012.7
20260509134918 16 7 0.0 0.0 0.00 0.00 0.00 53 1012.6
20260509134415 16 329 1.6 3.2 0.00 0.00 0.00 55 1012.7
20260509133913 16 17 0.0 0.0 0.00 0.00 0.00 55 1012.6
20260509133409 16 11 0.0 0.0 0.00 0.00 0.00 56 1012.7
20260509132908 15 13 0.0 0.0 0.00 0.00 0.00 60 1012.9
20260509132405 15 6 0.0 0.0 0.00 0.00 0.00 61 1012.9
20260509131902 14 6 0.0 0.0 0.00 0.00 0.00 63 1012.9
20260509131359 13 6 0.0 0.0 0.00 0.00 0.00 64 1012.7
20260509130856 13 352 0.0 0.0 0.00 0.00 0.00 67 1012.9
20260509130351 13 352 0.0 0.0 0.00 0.00 0.00 66 1012.7
20260509125848 13 309 0.0 0.0 0.00 0.00 0.00 69 1012.7
20260509125344 13 223 0.0 0.0 0.00 0.00 0.00 69 1012.7
20260509124841 13 221 0.0 0.0 0.00 0.00 0.00 68 1012.6
20260509124338 13 220 0.0 0.0 0.00 0.00 0.00 69 1012.5
20260509123836 12 220 0.0 0.0 0.00 0.00 0.00 69 1012.5
20260509123333 12 221 0.0 0.0 0.00 0.00 0.00 72 1012.5
20260509122829 12 221 0.0 0.0 0.00 0.00 0.00 73 1012.6
20260509122326 12 221 0.0 0.0 0.00 0.00 0.00 74 1012.6
20260509121823 12 221 0.0 0.0 0.00 0.00 0.00 72 1012.8
20260509121320 12 221 0.0 0.0 0.00 0.00 0.00 75 1012.7
20260509120818 11 221 1.6 1.6 0.00 0.00 0.00 76 1012.9
20260509120315 11 219 1.6 1.6 0.00 0.00 0.00 78 1012.8
20260509115814 11 216 3.2 4.8 0.00 0.00 0.00 80 1012.8
20260509115310 11 236 0.0 0.0 0.00 0.00 0.00 78 1012.7
20260509114808 11 241 0.0 0.0 0.00 0.00 0.00 77 1012.9
20260509114306 11 260 0.0 0.0 0.00 0.00 0.00 76 1012.8
20260509113805 11 334 0.0 0.0 0.00 0.00 0.00 75 1012.6
20260509113301 11 338 0.0 0.0 0.00 0.00 0.00 76 1012.8
20260509112758 11 339 0.0 0.0 0.00 0.00 0.00 76 1012.7
20260509112256 11 339 0.0 0.0 0.00 0.00 0.00 76 1012.7
20260509111753 11 339 0.0 0.0 0.00 0.00 0.00 76 1012.7
20260509111249 11 339 0.0 0.0 0.00 0.00 0.00 76 1012.6
20260509110747 11 339 0.0 0.0 0.00 0.00 0.00 76 1012.4
20260509110243 11 339 0.0 0.0 0.00 0.00 0.00 76 1012.5
20260509105742 10 339 0.0 0.0 0.00 0.00 0.00 76 1012.2
20260509105239 10 339 0.0 0.0 0.00 0.00 0.00 77 1012.4
20260509104736 10 339 0.0 0.0 0.00 0.00 0.00 75 1012.2
20260509104233 10 0 1.6 3.2 0.00 0.00 0.00 73 1012.2
20260509103731 11 258 1.6 3.2 0.00 0.00 0.00 74 1012.3
20260509103228 10 212 1.6 1.6 0.00 0.00 0.00 73 1012.2
20260509102726 11 206 0.0 1.6 0.00 0.00 0.00 74 1012.4
20260509102222 11 217 3.2 3.2 0.00 0.00 0.00 73 1012.2
20260509101719 10 189 3.2 4.8 0.00 0.00 0.00 72 1012.2
20260509101215 10 212 3.2 4.8 0.00 0.00 0.00 73 1012.3
20260509100713 10 175 3.2 4.8 0.00 0.00 0.00 74 1012.2
20260509100209 10 206 3.2 3.2 0.00 0.00 0.00 76 1012.1
20260509095706 10 214 3.2 3.2 0.00 0.00 0.00 75 1012.3
20260509095204 10 225 1.6 3.2 0.00 0.00 0.00 75 1012.1
20260509094700 11 222 0.0 1.6 0.00 0.00 0.00 75 1012.1
20260509094157 11 222 0.0 0.0 0.00 0.00 0.00 73 1012.3
20260509093656 11 223 0.0 0.0 0.00 0.00 0.00 72 1012.3
20260509093152 11 223 1.6 1.6 0.00 0.00 0.00 70 1012.4
20260509092650 11 223 0.0 0.0 0.00 0.00 0.00 70 1012.5
20260509092144 11 223 0.0 1.6 0.00 0.00 0.00 69 1012.4
20260509091641 11 212 1.6 3.2 0.00 0.00 0.00 69 1012.4
20260509091137 11 200 0.0 0.0 0.00 0.00 0.00 69 1012.6
20260509090635 11 223 0.0 1.6 0.00 0.00 0.00 71 1012.3
20260509090132 11 225 0.0 1.6 0.00 0.00 0.00 73 1012.3
20260509085629 11 225 0.0 0.0 0.00 0.00 0.00 70 1012.5
20260509085125 11 225 3.2 3.2 0.00 0.00 0.00 68 1012.4
20260509084623 11 214 1.6 3.2 0.00 0.00 0.00 68 1012.5
20260509084120 11 186 3.2 3.2 0.00 0.00 0.00 66 1012.4
20260509083617 11 201 0.0 0.0 0.00 0.00 0.00 67 1012.7
20260509083113 11 217 0.0 3.2 0.00 0.00 0.00 67 1012.6
20260509082611 11 207 0.0 0.0 0.00 0.00 0.00 68 1012.6
20260509082107 11 215 1.6 4.8 0.00 0.00 0.00 68 1012.6
20260509081605 11 217 1.6 4.8 0.00 0.00 0.00 69 1012.7
20260509081101 11 246 4.8 4.8 0.00 0.00 0.00 68 1012.5
20260509080600 12 221 3.2 3.2 0.00 0.00 0.00 67 1012.6
20260509080057 12 197 6.4 9.7 0.00 0.00 0.00 64 1012.5
20260509075555 12 224 6.4 9.7 0.00 0.00 0.00 66 1012.7
20260509075053 12 222 8.0 9.7 0.00 0.00 0.00 65 1012.6
20260509074549 12 202 4.8 6.4 0.00 0.00 0.00 65 1012.6
20260509074046 12 204 6.4 6.4 0.00 0.00 0.00 65 1012.7
20260509073543 12 210 6.4 6.4 0.00 0.00 0.00 67 1012.6
20260509073039 12 222 4.8 9.7 0.00 0.00 0.00 65 1012.8
20260509072535 12 216 6.4 9.7 0.00 0.00 0.00 65 1012.8
20260509072032 11 214 4.8 6.4 0.00 0.00 0.00 66 1012.8